timestamp,surface_pressure_avg,surface_temp_avg,battery_voltage,lat,long
2017-09-11 00:00:00+00:00,257.5597,15.2,12.57,47.84626,-54.09684
2017-09-11 00:10:00+00:00,265.6514,15.1,12.57,47.84626,-54.09684
2017-09-11 00:20:00+00:00,275.4864,15.19,12.57,47.84626,-54.09684
2017-09-11 00:30:00+00:00,281.0047,15.0,12.57,47.84626,-54.09684
2017-09-11 00:40:00+00:00,286.8014,14.9,12.57,47.84626,-54.09684
2017-09-11 00:50:00+00:00,307.9747,14.8,12.57,47.84626,-54.09684
2017-09-11 01:00:00+00:00,320.2028,14.8,12.57,47.84626,-54.09684
2017-09-11 01:10:00+00:00,322.338,14.8,12.49,47.84626,-54.09684
2017-09-11 01:20:00+00:00,318.0764,14.8,12.57,47.84626,-54.09684
2017-09-11 01:30:00+00:00,330.2863,14.8,12.57,47.84626,-54.09684
2017-09-11 01:40:00+00:00,340.0096,14.8,12.57,47.84626,-54.09684
2017-09-11 01:50:00+00:00,344.4362,14.8,12.57,47.84626,-54.09684
2017-09-11 02:00:00+00:00,346.783,14.8,12.57,47.84626,-54.09684
2017-09-11 02:10:00+00:00,345.3796,14.8,12.49,47.84626,-54.09684
2017-09-11 02:20:00+00:00,349.7679,14.8,12.57,47.84626,-54.09684
2017-09-11 02:30:00+00:00,348.9862,14.8,12.57,47.84626,-54.09684
2017-09-11 02:40:00+00:00,351.4246,14.8,12.57,47.84626,-54.09684
2017-09-11 02:50:00+00:00,366.928,14.78,12.57,47.84626,-54.09684
2017-09-11 03:00:00+00:00,360.0297,14.79,12.57,47.84626,-54.09684
2017-09-11 03:10:00+00:00,353.3529,14.8,12.49,47.84626,-54.09684
2017-09-11 03:20:00+00:00,347.5414,14.78,12.57,47.84626,-54.09684
2017-09-11 03:30:00+00:00,342.0812,14.78,12.57,47.84626,-54.09684
2017-09-11 03:40:00+00:00,337.6829,14.77,12.57,47.84626,-54.09684
2017-09-11 03:50:00+00:00,333.5663,14.79,12.57,47.84626,-54.09684
2017-09-11 04:00:00+00:00,326.1213,14.79,12.57,47.84626,-54.09684
2017-09-11 04:10:00+00:00,322.9498,14.7,12.49,47.84626,-54.09684
2017-09-11 04:20:00+00:00,328.5963,14.74,12.57,47.84626,-54.09684
2017-09-11 04:30:00+00:00,323.7547,14.75,12.57,47.84626,-54.09684
2017-09-11 04:40:00+00:00,311.628,14.74,12.57,47.84626,-54.09684
2017-09-11 04:50:00+00:00,313.2246,14.7,12.57,47.84626,-54.09684
2017-09-11 05:00:00+00:00,312.4614,14.7,12.57,47.84626,-54.09684
2017-09-11 05:10:00+00:00,304.6346,14.73,12.49,47.84626,-54.09684
2017-09-11 05:20:00+00:00,284.5814,14.7,12.57,47.84626,-54.09684
2017-09-11 05:30:00+00:00,276.5098,14.7,12.57,47.84626,-54.09684
2017-09-11 05:40:00+00:00,268.1264,14.7,12.57,47.84626,-54.09684
2017-09-11 05:50:00+00:00,253.2964,14.7,12.57,47.84626,-54.09684
2017-09-11 06:00:00+00:00,241.7114,14.7,12.57,47.84626,-54.09684
2017-09-11 06:10:00+00:00,246.0648,14.7,12.49,47.84626,-54.09684
2017-09-11 06:20:00+00:00,243.9814,14.7,12.57,47.84626,-54.09684
2017-09-11 06:30:00+00:00,232.8031,14.5,12.57,47.84626,-54.09684
2017-09-11 06:40:00+00:00,219.4631,14.5,12.57,47.84626,-54.09684
2017-09-11 06:50:00+00:00,222.2865,14.5,12.57,47.84626,-54.09684
2017-09-11 07:00:00+00:00,219.5147,14.5,12.57,47.84626,-54.09684
2017-09-11 07:10:00+00:00,207.9915,14.5,12.49,47.84626,-54.09684
2017-09-11 07:20:00+00:00,199.1365,14.5,12.57,47.84626,-54.09684
2017-09-11 07:30:00+00:00,195.9431,14.5,12.57,47.84626,-54.09684
2017-09-11 07:40:00+00:00,190.3615,14.5,12.57,47.84626,-54.09684
2017-09-11 07:50:00+00:00,180.8548,14.5,12.57,47.84626,-54.09684
2017-09-11 08:00:00+00:00,185.6531,14.5,12.49,47.84626,-54.09684
2017-09-11 08:10:00+00:00,185.6365,14.51,12.49,47.84626,-54.09684
2017-09-11 08:20:00+00:00,184.2814,14.5,12.57,47.84626,-54.09684
2017-09-11 08:30:00+00:00,196.2248,14.5,12.57,47.84626,-54.09684
2017-09-11 08:40:00+00:00,196.7981,14.5,12.57,47.84626,-54.09684
2017-09-11 08:50:00+00:00,189.3898,14.4,12.57,47.84626,-54.09684
2017-09-11 09:00:00+00:00,191.8531,14.58,12.49,47.84626,-54.09684
2017-09-11 09:10:00+00:00,196.4531,14.45,12.49,47.84626,-54.09684
2017-09-11 09:20:00+00:00,195.4714,14.4,12.57,47.84626,-54.09684
2017-09-11 09:30:00+00:00,200.0048,14.5,12.57,47.84626,-54.09684
2017-09-11 09:40:00+00:00,210.4264,14.6,12.57,47.84626,-54.09684
2017-09-11 09:50:00+00:00,214.4831,14.6,12.57,47.84626,-54.09684
2017-09-11 10:00:00+00:00,214.4081,14.6,12.49,47.84626,-54.09684
2017-09-11 10:10:00+00:00,215.3948,14.6,12.49,47.84626,-54.09684
2017-09-11 10:20:00+00:00,218.6031,14.6,12.57,47.84626,-54.09684
2017-09-11 10:30:00+00:00,223.9464,14.6,12.57,47.84626,-54.09684
2017-09-11 10:40:00+00:00,238.3398,14.6,12.57,47.84626,-54.09684
2017-09-11 10:50:00+00:00,252.3765,14.6,12.57,47.84626,-54.09684
2017-09-11 11:00:00+00:00,252.3397,14.6,12.49,47.84626,-54.09684
2017-09-11 11:10:00+00:00,244.8031,14.6,12.49,47.84626,-54.09684
2017-09-11 11:20:00+00:00,245.0815,14.6,12.57,47.84626,-54.09684
2017-09-11 11:30:00+00:00,247.6681,14.4,12.57,47.84626,-54.09684
2017-09-11 11:40:00+00:00,245.6898,14.38,12.57,47.84626,-54.09684
2017-09-11 11:50:00+00:00,252.1198,14.5,12.57,47.84626,-54.09684
2017-09-11 12:00:00+00:00,265.4398,14.54,12.57,47.84626,-54.09684
2017-09-11 12:10:00+00:00,270.1797,14.5,12.49,47.84626,-54.09684
2017-09-11 12:20:00+00:00,275.7264,14.5,12.57,47.84626,-54.09684
2017-09-11 12:30:00+00:00,289.9697,14.5,12.57,47.84626,-54.09684
2017-09-11 12:40:00+00:00,309.2764,14.5,12.57,47.84626,-54.09684
2017-09-11 12:50:00+00:00,316.178,14.51,12.57,47.84626,-54.09684
2017-09-11 13:00:00+00:00,317.098,14.5,12.57,47.84626,-54.09684
2017-09-11 13:10:00+00:00,319.788,14.5,12.49,47.84626,-54.09684
2017-09-11 13:20:00+00:00,328.7614,14.52,12.57,47.84626,-54.09684
2017-09-11 13:30:00+00:00,329.2847,14.5,12.57,47.84626,-54.09684
2017-09-11 13:40:00+00:00,336.3496,14.5,12.65,47.84626,-54.09684
2017-09-11 13:50:00+00:00,337.2347,14.5,12.57,47.84626,-54.09684
2017-09-11 14:00:00+00:00,335.3779,14.5,12.57,47.84626,-54.09684
2017-09-11 14:10:00+00:00,342.3264,14.5,12.57,47.84626,-54.09684
2017-09-11 14:20:00+00:00,352.7347,14.5,12.57,47.84626,-54.09684
2017-09-11 14:30:00+00:00,347.2646,14.5,12.57,47.84626,-54.09684
2017-09-11 14:40:00+00:00,348.0914,14.5,12.57,47.84626,-54.09684
2017-09-11 14:50:00+00:00,352.673,14.5,12.57,47.84626,-54.09684
2017-09-11 15:00:00+00:00,352.803,14.5,12.57,47.84626,-54.09684
2017-09-11 15:10:00+00:00,341.6197,14.5,12.57,47.84626,-54.09684
2017-09-11 15:20:00+00:00,351.2096,14.5,12.65,47.84626,-54.09684
2017-09-11 15:30:00+00:00,358.8663,14.5,12.65,47.84626,-54.09684
2017-09-11 15:40:00+00:00,344.2329,14.5,12.65,47.84626,-54.09684
2017-09-11 15:50:00+00:00,337.288,14.5,12.65,47.84626,-54.09684
2017-09-11 16:00:00+00:00,346.6496,14.5,12.65,47.84626,-54.09684
2017-09-11 16:10:00+00:00,348.1113,14.5,12.57,47.84626,-54.09684
2017-09-11 16:20:00+00:00,339.6746,14.5,12.65,47.84626,-54.09684
2017-09-11 16:30:00+00:00,332.8097,14.5,12.65,47.84626,-54.09684
2017-09-11 16:40:00+00:00,333.3447,14.5,12.65,47.84626,-54.09684
2017-09-11 16:50:00+00:00,326.7497,14.5,12.65,47.84626,-54.09684
2017-09-11 17:00:00+00:00,326.3896,14.5,12.57,47.84626,-54.09684
2017-09-11 17:10:00+00:00,317.0646,14.5,12.57,47.84626,-54.09684
2017-09-11 17:20:00+00:00,314.158,14.5,12.65,47.84626,-54.09684
2017-09-11 17:30:00+00:00,314.2663,14.49,12.65,47.84626,-54.09684
2017-09-11 17:40:00+00:00,300.483,14.4,12.65,47.84626,-54.09684
2017-09-11 17:50:00+00:00,289.9897,14.43,12.65,47.84626,-54.09684
2017-09-11 18:00:00+00:00,292.1931,14.5,12.57,47.84626,-54.09684
2017-09-11 18:10:00+00:00,286.3247,14.49,12.57,47.84626,-54.09684
2017-09-11 18:20:00+00:00,267.8481,14.4,12.57,47.84626,-54.09684
2017-09-11 18:30:00+00:00,258.6414,14.4,12.57,47.84626,-54.09684
2017-09-11 18:40:00+00:00,262.9047,14.45,12.57,47.84626,-54.09684
2017-09-11 18:50:00+00:00,257.8364,14.48,12.65,47.84626,-54.09684
2017-09-11 19:00:00+00:00,242.7448,14.4,12.57,47.84626,-54.09684
2017-09-11 19:10:00+00:00,236.1914,14.4,12.57,47.84626,-54.09684
2017-09-11 19:20:00+00:00,234.0898,14.4,12.57,47.84626,-54.09684
2017-09-11 19:30:00+00:00,223.7531,14.4,12.57,47.84626,-54.09684
2017-09-11 19:40:00+00:00,214.1181,14.4,12.57,47.84626,-54.09684
2017-09-11 19:50:00+00:00,210.0131,14.4,12.57,47.84626,-54.09684
2017-09-11 20:00:00+00:00,203.2048,14.3,12.57,47.84626,-54.09684
2017-09-11 20:10:00+00:00,196.6765,14.3,12.57,47.84626,-54.09684
2017-09-11 20:20:00+00:00,197.5598,14.3,12.57,47.84626,-54.09684
2017-09-11 20:30:00+00:00,191.5214,14.29,12.57,47.84626,-54.09684
2017-09-11 20:40:00+00:00,183.7331,14.3,12.57,47.84626,-54.09684
2017-09-11 20:50:00+00:00,189.5364,14.33,12.57,47.84626,-54.09684
2017-09-11 21:00:00+00:00,193.8231,14.3,12.57,47.84626,-54.09684
2017-09-11 21:10:00+00:00,190.7664,14.3,12.49,47.84626,-54.09684
2017-09-11 21:20:00+00:00,192.1915,14.3,12.57,47.84626,-54.09684
2017-09-11 21:30:00+00:00,197.4998,14.2,12.57,47.84626,-54.09684
2017-09-11 21:40:00+00:00,195.2081,14.2,12.57,47.84626,-54.09684
2017-09-11 21:50:00+00:00,197.5615,14.2,12.57,47.84626,-54.09684
2017-09-11 22:00:00+00:00,207.8497,14.2,12.49,47.84626,-54.09684
2017-09-11 22:10:00+00:00,210.8181,14.2,12.49,47.84626,-54.09684
2017-09-11 22:20:00+00:00,214.8081,14.26,12.57,47.84626,-54.09684
2017-09-11 22:30:00+00:00,221.5931,14.2,12.57,47.84626,-54.09684
2017-09-11 22:40:00+00:00,220.6714,14.2,12.57,47.84626,-54.09684
2017-09-11 22:50:00+00:00,223.9247,14.2,12.57,47.84626,-54.09684
2017-09-11 23:00:00+00:00,229.5264,14.2,12.49,47.84626,-54.09684
2017-09-11 23:10:00+00:00,232.5331,14.2,12.49,47.84626,-54.09684
2017-09-11 23:20:00+00:00,230.6464,14.29,12.57,47.84626,-54.09684
2017-09-11 23:30:00+00:00,230.0698,14.3,12.57,47.84626,-54.09684
2017-09-11 23:40:00+00:00,234.6931,14.2,12.57,47.84626,-54.09684
2017-09-11 23:50:00+00:00,238.6297,14.2,12.57,47.84626,-54.09684
